Find Starlink 30088

NORAD ID: 57462 Int'l Des: 2023-107 Owner: SPXS Country: US Constellation: starlink operational
LEOCIRCULAR

Live Position

Loading 3D Globe...

About Starlink 30088

Description loading...

Upcoming Passes

Passes for default location (London). Set your location on the main map for personalized predictions.

Altitude History

Loading altitude history...

Two-Line Element Set

1 57462U 23107F 26130.01944723 -.00000677 00000-0 -15075-4 0 9993
2 57462 43.0034 350.0061 0001278 262.0885 97.9821 15.27567360154529
Epoch: May 10, 2026 • Age: 10 hours

Current Status

Altitude 492.1 km
Velocity 7.62 km/s
Sub-Earth Point -34.43°S, 177.37°W
Launch Date Jul 28, 2023
Age 2.7 years
Type internet

Technical Details

Classification Payload
Mass 730.00 kg
Dry Mass 700.00 kg
Total Mass 730.00 kg
Length 0.30 m
Diameter 4.10 m
Span 29.00 m
Shape Box + pan
Manufacturer SPXS
Bus Type Starlink V2M
Phase Status In Orbit
Owner/State SPXS/US

Most Searched